STARLINK-4116 (53164 NORAD) Tracking and Keplerian Element Data

This shows tracking and keplerian element data for the satellite.

Feedback or suggestion? Click here.




ElementValue
Catalog53164
NameSTARLINK-4116
Epoch Orbit130
Epoch Day269.91667824
Epoch Year2022
RAAN59.632
Inclination53.2172
Eccentricity0.0001492
Argument of Perigee54.3048
Mean Anonmoly30.2318
Mean Motion15.20493063
Decay Rate-0.01075789
L11 53164U 22083AJ 22269.91667824 -.01075789 00000+0 -53173-1 0 9996
L22 53164 53.2172 59.6320 0001492 54.3048 30.2318 15.20493063 1300

Live tracking and technical data element details for STARLINK-4116 (NORAD 53164). STARLINK-4116 can be tracked NOW for your location showing map with azimuth and elevation plus other details from your city location.

Track the satellite on the map from your city or location and see movement details for azimuth, elevation, latitude, longitude, range, height, and movement on the map or in text.







IsCatalogInMostPopularTable: catalog: 53164, numindb: 2
Update: records affected: 1



GetName: 53164 STARLINK-4116

Hit Count: updated at: Thu, 29 Sep 2022 12:28:31 GMT